Weather in Tilburg

Netherlands     51°33′18″N   5°04′41″E
temp.,
°C
wind,
m/s
gust,
m/s
humid.,
%
clouds,
%
prec.,
mm/h
press.,
hPa
HPBL,
m
21 june, mon
mon2123:00+17nne51080100 0.0 1008343
02:00+15nne61295100 3.5 1007416
05:00+14n51198100 19.3 1006399
08:00+13nne51197100 23.6 1007466
11:00+13n4896100 2.3 1009442
14:00+16nne578574 5.6 1010648
17:00+15nne5782100 0.1 1012669
20:00+15nne677896 0.1 1013816
22 june, tue
tue2223:00+11ne379122 0.0 1015312
02:00+10ne3896100 0.0 1016260
05:00+10ne389338 0.0 1016274
08:00+12ne5108385 0.0 1016550
11:00+15ne6768100 0.0 10171157
14:00+18ne675787 0.0 10171418
17:00+17nne4666100 0.0 1017492
20:00+16nne51068100 0.1 1018650
23 june, wed
wed2323:00+15nne61069100 0.0 1019602
02:00+13nne51075100 0.0 1020423
05:00+11ne4981100 0.0 1021304
08:00+13ne5876100 0.0 1021369
11:00+17ne566097 0.0 1021708
14:00+20ne56544 0.0 10211058
17:00+21ne555417 0.0 10201231
20:00+19ene57631 0.0 1020597
24 june, thu
thu2423:00+14ne497629 0.0 1022277
02:00+11ne38845 0.0 1022201
05:00+10nne37905 0.0 1021164
08:00+13ne467672 0.0 1021290
11:00+18nne445876 0.0 1020728
14:00+21nne344711 0.0 10191227
17:00+22nne334587 0.0 10181507
20:00+21nne24605 0.0 1017207
25 june, fri
fri2523:00+14nne34824 0.0 101880
02:00+12nne22915 0.0 101826
05:00+11nne11950 0.0 101711
08:00+15wnw118617 0.0 1017204
11:00+19wsw2262100 0.0 1016889
14:00+22w224664 0.0 10161556
17:00+23w33326 0.0 10161673
20:00+21nnw22505 0.0 101696